Location: Hermaringen
(48.5952°N, 10.2585°E)
Time: 05:40:24
(UTC+00:00)

Vanguard 1 - All Passes

Search period start: 18 February 2026 00:00
Search period end: 28 February 2026 00:00
Orbit: 652 x 3819 km, 34.3° (Epoch: 17 February)

Date Brightness Start Highest point End Pass type
(mag) Time Alt. Az. Time Alt. Az. Time Alt. Az.
18 Feb - 13:06:06 10° S 13:13:25 22° SE 13:24:03 10° E daylight
18 Feb - 15:22:11 10° SW 15:33:26 44° SSE 15:51:54 10° E daylight
18 Feb - 17:41:34 10° WSW 17:56:15 49° S 18:17:32 10° ESE visible
18 Feb - 20:03:33 10° W 20:19:54 35° SSW 20:39:09 10° SSE visible
18 Feb - 22:32:38 10° WSW 22:41:59 14° SW 22:51:26 10° SSW visible
19 Feb - 13:24:04 10° SSW 13:32:01 27° SE 13:44:17 10° E daylight
19 Feb - 15:41:03 10° WSW 15:52:33 47° SSE 16:11:29 10° ESE daylight
19 Feb - 18:00:50 10° WSW 18:15:34 46° SSW 18:36:32 10° SE visible
19 Feb - 20:23:27 10° W 20:38:58 30° SW 20:56:54 10° SSE visible
20 Feb - 13:42:21 10° SSW 13:50:44 32° SSE 14:04:15 10° E daylight
20 Feb - 16:00:02 10° WSW 16:11:45 48° S 16:30:58 10° ESE daylight
20 Feb - 18:20:11 10° W 18:34:51 43° SSW 18:55:19 10° SE visible
20 Feb - 20:43:43 10° W 20:57:56 25° SW 21:14:04 10° S visible
21 Feb - 11:47:44 10° SSE 11:50:55 12° SE 11:54:41 10° ESE daylight
21 Feb - 14:00:52 10° SW 14:09:35 36° SSE 14:24:02 10° E daylight
21 Feb - 16:19:06 10° WSW 16:30:59 47° S 16:50:21 10° ESE daylight
21 Feb - 18:39:38 10° W 18:54:07 38° SSW 19:13:50 10° SE visible
21 Feb - 21:04:38 10° W 21:16:50 19° SW 21:30:23 10° S visible
22 Feb - 12:04:23 10° S 12:09:23 17° SE 12:16:04 10° ESE daylight
22 Feb - 14:19:34 10° SW 14:28:31 39° SSE 14:43:43 10° E daylight
22 Feb - 16:38:14 10° WSW 16:50:16 46° S 17:09:34 10° ESE daylight
22 Feb - 18:59:14 10° W 19:13:19 34° SSW 19:31:59 10° SSE visible
22 Feb - 21:26:56 10° WSW 21:35:41 14° SW 21:45:06 10° SSW visible
23 Feb - 12:22:05 10° S 12:27:57 21° SE 12:36:29 10° E daylight
23 Feb - 14:38:24 10° SW 14:47:34 42° SSE 15:03:18 10° ESE daylight
23 Feb - 16:57:27 10° WSW 17:09:33 43° S 17:28:37 10° SE visible
23 Feb - 19:19:06 10° W 19:32:28 28° SSW 19:49:43 10° SSE visible
24 Feb - 12:40:15 10° SSW 12:46:38 26° SSE 12:56:31 10° E daylight
24 Feb - 14:57:20 10° WSW 15:06:42 43° S 15:22:48 10° ESE daylight
24 Feb - 17:16:44 10° WSW 17:28:50 40° SSW 17:47:25 10° SE visible
24 Feb - 19:39:19 10° W 19:51:35 23° SW 20:06:50 10° S visible
25 Feb - 12:58:42 10° SSW 13:05:27 30° SSE 13:16:19 10° E daylight
25 Feb - 15:16:21 10° WSW 15:25:53 43° S 15:42:10 10° ESE daylight
25 Feb - 17:36:10 10° WSW 17:48:06 35° SSW 18:05:56 10° SE visible
25 Feb - 20:00:14 10° WSW 20:10:38 18° SW 20:23:02 10° S visible
26 Feb - 11:03:42 10° SSE 11:05:49 11° SE 11:08:13 10° ESE daylight
26 Feb - 13:17:20 10° SW 13:24:21 33° SSE 13:35:59 10° ESE daylight
26 Feb - 15:35:27 10° WSW 15:45:05 41° S 16:01:24 10° ESE daylight
26 Feb - 17:55:45 10° WSW 18:07:21 31° SSW 18:24:06 10° SSE visible
26 Feb - 20:22:46 10° WSW 20:29:40 13° SW 20:37:21 10° SSW visible
27 Feb - 11:20:34 10° S 11:24:25 15° SE 11:29:23 10° ESE daylight
27 Feb - 13:36:08 10° SW 13:43:21 36° SSE 13:55:32 10° ESE daylight
27 Feb - 15:54:38 10° WSW 16:04:20 39° S 16:20:26 10° SE daylight
27 Feb - 18:15:36 10° WSW 18:26:35 26° SSW 18:41:47 10° SSE visible
